Regional Weather Roundup
Issued by NWS

Home | Current Version | Previous Version | Graphics & Text | Print | Product List | Glossary On
Versions: 1 2 3 4 5 6 7 8 9 10 11 12 13 14 15 16 17 18 19 20 21 22 23 24 25 26 27 28 29 30 31 32 33 34 35 36 37 38 39 40 41 42 43 44 45 46 47 48 49 50
322
ASUS44 KJAN 201310
RWRMS

MISSISSIPPI HOURLY WEATHER ROUNDUP
NATIONAL WEATHER SERVICE JACKSON MS
700 AM CST THU NOV 20 2014

NOTE: "FAIR: INDICATES FEW OR NO CLOUDS BELOW 12,000 FEET WITH NO
SIGNIFICANT WEATHER AND/OR OBSTRUCTIONS TO VISIBILITY.

MSZ001>002-007>008-010>013-018>021-025>028-034>036-201400-
NORTHWEST MISSISSIPPI

CITY           SKY/WX    TMP DP  RH WIND       PRES   REMARKS
CLARKSDALE     FAIR      34  32  93 N8        30.28R WCI  27
CLEVELAND      FAIR      38  38 100 CALM      30.25R
GREENWOOD      CLOUDY    43  35  73 CALM      30.26R
GREENVILLE     CLOUDY    43  39  86 S7        30.24S
GRENADA        FAIR      34  32  93 CALM      30.26R
OLIVE BRANCH   PTCLDY    32  30  93 CALM      30.27R
OXFORD         FAIR      30  28  93 CALM      30.27R
TUNICA         SUNNY     32  30  93 N5        30.29R WCI  27
$$

MSZ003>006-009-014>017-022>024-029>033-037>039-201400-
NORTHEAST MISSISSIPPI

CITY           SKY/WX    TMP DP  RH WIND       PRES   REMARKS
COLUMBUS AFB   CLEAR     34  30  84 S1        30.26R
CORINTH        FAIR      28  27  93 CALM      30.25R
GOLDN TRIANGLE MOCLDY    37  30  75 SW3       30.26R
STARKVILLE       N/A    N/A N/A N/A MISG        N/A
TUPELO         CLEAR     36  27  69 CALM      30.25R
$$

MSZ040-058-201400-
CENTRAL MISSISSIPPI

CITY           SKY/WX    TMP DP  RH WIND       PRES   REMARKS
JACKSON INTL   PTCLDY    42  39  89 S5        30.26R
JACKSON HAWKNS MOCLDY    43  39  86 CALM      30.26R
MERIDIAN KEY   MOCLDY    37  35  92 S5        30.28R WCI  33
MERIDIAN NAS   MOCLDY    42  37  82 W5        30.28R
RAYMOND        FAIR      39  36  87 CALM      30.26R
VICKSBURG      PTCLDY    39  36  89 SE3       30.25R
$$

MSZ059>079-201400-
SOUTH MISSISSIPPI

CITY           SKY/WX    TMP DP  RH WIND       PRES   REMARKS
BROOKHAVEN     FAIR      39  39 100 CALM      30.28R FOG
COLUMBIA         N/A     34  34 100 MISG        N/A
HATTIESBURG    CLEAR     34  32  92 CALM      30.30R
MCCOMB         PTCLDY    39  36  89 CALM      30.27R
NATCHEZ        PTCLDY    43  37  81 S6        30.26R
PINE BELT      CLEAR     34  30  86 CALM      30.28R
$$

MSZ080>082-201400-
COASTAL MISSISSIPPI

CITY           SKY/WX    TMP DP  RH WIND       PRES   REMARKS
BAY ST LOUIS   CLEAR     34  30  86 CALM      30.30
BILOXI         CLEAR     38  37  97 NE2       30.29R
PASCAGOULA     CLEAR     32  30  92 CALM      30.30R
GULFPORT       CLEAR     36  34  92 CALM      30.29R
$$



USA.gov is the U.S. government's official web portal to all federal, state and local government web resources and services.